Regional Weather Roundup
Issued by NWS

Home | Current Version | Previous Version | Text Only | Print | Product List | Glossary On
Versions: 1 2 3 4 5 6 7 8 9 10 11 12 13 14 15 16 17 18 19 20 21 22 23 24 25 26 27 28 29 30 31 32 33 34 35 36 37 38 39 40 41 42 43 44 45 46 47 48 49 50
000
ASUS45 KTFX 171404
RWRMT
MONTANA HOURLY WEATHER ROUNDUP
NATIONAL WEATHER SERVICE GREAT FALLS MT
804 AM MDT WED SEP 17 2014

NOTE: "FAIR" INDICATES FEW OR NO CLOUDS BELOW 12000 FEET WITH NO
SIGNIFICANT WEATHER AND/OR OBSTRUCTIONS TO VISIBILITY.

* THESE STATIONS ARE NOT UNDER NWS QUALITY CONTROL. THEY DO NOT
   REPORT WEATHER SUCH AS PRECIPITATION OR FOG.

MTZ001>007-043-171500-
WEST OF THE DIVIDE
CITY           SKY/WX    TMP DP  RH WIND       PRES   REMARKS
KALISPELL      PTCLDY    45  41  86 NW3       29.90R
MISSOULA       SUNNY     48  43  83 CALM      29.96R
BUTTE          PTCLDY    39  37  93 CALM      30.07R
MULLAN PASS    PTCLDY    59  37  44 S5        30.01S
* ESSEX        N/A       47  43  86 E3         N/A
* LINCOLN      N/A       36  35  96 N/A        N/A
* LOOKOUT PASS N/A       52  41  66 S2         N/A
* POLSON       N/A       52  42  69 N/A        N/A
* RONAN APT    PTCLDY    46  41  83 N/A        N/A
* SEELEY LAKE  N/A       38  36  93 N/A        N/A
* THOMP F APT  PTCLDY    53  35  51 NE4        N/A
$$

MTZ008-052>055-171500-
SOUTHWEST MONTANA
CITY           SKY/WX    TMP DP  RH WIND       PRES   REMARKS
BOZEMAN        PTCLDY    45  43  93 E3        30.02R
DILLON         PTCLDY    50  43  77 SW8       30.05R
W YELLOWSTONE  SUNNY     32  32 100 CALM      30.18R
* THREE FORKS  SUNNY     41  25  53 N/A        N/A
* BOULDER HILL N/A       50  40  69 S12        N/A
* MONIDA PASS  N/A       43  39  86 W7         N/A
* RAYNOLDS PAS N/A       45  28  51 SE3        N/A
* WHITEHALL    N/A       42  39  89 W1G10      N/A
* WISE RIVER   N/A       37  36  96 W4         N/A
$$

MTZ009>010-012-014-046-048-049-054-171500-
EAST SLOPES AND CENTRAL MONTANA
CITY           SKY/WX    TMP DP  RH WIND       PRES   REMARKS
CUT BANK       PTCLDY    52  43  72 NW5       29.91S
GREAT FALLS    PTCLDY    55  46  72 S9        29.90S
HELENA         PTCLDY    48  46  93 CALM      29.98R
MALMSTROM AFB  PTCLDY    55  48  77 S2        29.91R
* CONRAD       PTCLDY    46  45  96 N/A        N/A
* EAST GLACIER N/A       51  38  61 NW7        N/A
* MONARCH      N/A       49  40  71 S14        N/A
* PENDROY      N/A       55  40  57 W2G7       N/A
* ROGERS PASS  N/A       56  39  53 W6         N/A
* SAINT MARY   N/A       38  36  93 SE3        N/A
* SWEET GRASS  N/A       60  37  43 NW7        N/A
$$

MTZ011-013-016-021-035-040-045-047-050-051-171500-
NORTH CENTRAL MONTANA
CITY           SKY/WX    TMP DP  RH WIND       PRES   REMARKS
HAVRE          PTCLDY    50  46  86 E5        29.88R
LEWISTOWN      PTCLDY    54  45  72 SE5       29.95S
* DENTON       N/A       52  46  80 SW2G9      N/A
* GEYSER       N/A       50  43  77 SW6        N/A
* JUDITH GAP   N/A       55  47  75 S3         N/A
* LOMA         N/A       53  47  80 N2         N/A
$$

MTZ017>020-022>027-061-062-171500-
NORTHEAST MONTANA
CITY           SKY/WX    TMP DP  RH WIND       PRES   REMARKS
GLASGOW        PTSUNNY   54  41  62 E12       29.90R
JORDAN         PTSUNNY   48  46  93 CALM      29.90S
SIDNEY         PTCLDY    46  43  89 N3        29.96S
WOLF POINT     CLOUDY    46  39  77 E6        29.93S
* BEAVER HILL  N/A       54  46  74 SE9        N/A
* CIRCLE       N/A       54  48  80 NE3        N/A
* LINDSAY DVD  N/A       56  46  69 E5         N/A
* NAVAJO       N/A       49  39  69 N/A        N/A
* SACO         N/A       47  43  86 S1         N/A
$$

MTZ028>042-056>058-171500-
SOUTHCENTRAL AND SOUTHEAST MONTANA
CITY           SKY/WX    TMP DP  RH WIND       PRES   REMARKS
BAKER          PTCLDY    52  48  86 E8        29.96S
BILLINGS       PTCLDY    61  46  58 SW14      29.94R
LIVINGSTON     PTSUNNY   52  43  72 VRB5      30.02R
MILES CITY     PTCLDY    52  46  80 N8        29.92R
* LAUREL APT   SUNNY     55  45  69 SW5        N/A
* ROUNDUP APT  PTCLDY    57  45  64 S9         N/A
* ALZADA       N/A       51  42  71 E3         N/A
* HYSHAM       N/A       61  42  50 W4         N/A
* LAME DEER    N/A       66  42  42 W8         N/A
* REED POINT   N/A       55  47  75 N/A        N/A
* ROSCOE HILL  N/A       59  38  46 SW6        N/A
$$

REGIONAL REPORTS...DAKOTAS
CITY           SKY/WX    TMP DP  RH WIND       PRES   REMARKS
WILLISTON      HAZE      46  39  77 CALM      29.96S
DICKINSON      PTSUNNY   48  45  89 CALM      29.95S
BEACH          N/A       45  45 100 CALM      29.96S
CROSBY         SUNNY     46  43  89 E9        29.98R
TIOGA          SUNNY     45  45 100 CALM      29.99S
WATFORD CITY   SUNNY     41  37  86 CALM      29.95S
BISMARCK       SUNNY     48  43  83 CALM      29.97R
GRAND FORKS    SUNNY     50  46  86 N12       29.96R
FARGO          SUNNY     54  48  80 N5        29.93S
BUFFALO SD     PTCLDY    54  46  74 NE8       29.90S
RAPID CITY     SUNNY     61  43  52 NW8       29.97R
$$

REGIONAL REPORTS...WYOMING/IDAHO/WASHINGTON
CITY           SKY/WX    TMP DP  RH WIND       PRES   REMARKS
GILLETTE       PTSUNNY   66  43  43 SW10      29.98F
SHERIDAN       PTSUNNY   61  48  62 SW5       29.98R
CODY           SUNNY     55  43  64 SW9       30.05S
YELLOWSTONE LA SUNNY     36  34  92 CALM      30.25S
SALMON         PTCLDY    45  41  86 CALM      30.02R
MULLAN PASS    PTCLDY    59  37  44 S5        30.01S
SAND POINT     PTSUNNY   45  45 100 CALM      29.87R
SPOKANE        PTSUNNY   55  37  51 E5        29.84S
$$

REGIONAL REPORTS...SASKATCHEWAN
CITY           SKY/WX    TMP DP  RH WIND       PRES   REMARKS
MOOSE JAW      FOG      N/A N/A N/A E6         N/A   VSB 1/2

$$



USA.gov is the U.S. government's official web portal to all federal, state and local government web resources and services.